When you browse on this site, cookies collect data to enhance your experience and personalize the content and advertising you see.
Visit our Privacy Policy to learn more. By continuing to use the site, you agree to this use of cookies and data.
  • In Österreich
  • Länderverzeichnis
  • Für 7 Tage
  • Wassertemperatur
  • Satellitenkarten
  • Wetterkarte
  • News
  • Widgets
  • user-avatar
    Anmelden

    Stündliche Wetter Lagvoschi

    Heute, 24 Mai, Freitag

    Zeit Temperatur Niederschläge Wind Luftdruck Luftfeuchtigkeit
    00:00 +16°C° 0 mm 1 m/S 745 mmHg 89%
    01:00 +15°C° 0 mm 1 m/S 745 mmHg 90%
    02:00 +15°C° 0 mm 1 m/S 745 mmHg 91%
    03:00 +15°C° 0 mm 1 m/S 745 mmHg 91%
    04:00 +15°C° 0 mm 1 m/S 745 mmHg 92%
    05:00 +14°C° 0 mm 2 m/S 745 mmHg 93%
    06:00 +16°C° 0 mm 2 m/S 745 mmHg 89%
    07:00 +18°C° 0 mm 2 m/S 745 mmHg 84%
    08:00 +20°C° 0 mm 2 m/S 746 mmHg 79%
    09:00 +21°C° 0.4 mm 2 m/S 745 mmHg 75%
    10:00 +23°C° 0.4 mm 2 m/S 745 mmHg 70%
    11:00 +24°C° 0.4 mm 2 m/S 745 mmHg 66%
    12:00 +24°C° 0.1 mm 3 m/S 745 mmHg 64%
    13:00 +25°C° 0.1 mm 3 m/S 745 mmHg 62%
    14:00 +25°C° 0.1 mm 3 m/S 745 mmHg 61%
    15:00 +25°C° 0.2 mm 3 m/S 745 mmHg 64%
    16:00 +24°C° 0.2 mm 3 m/S 744 mmHg 67%
    17:00 +24°C° 0.2 mm 3 m/S 744 mmHg 71%
    18:00 +21°C° 0.4 mm 3 m/S 744 mmHg 78%
    19:00 +20°C° 0.4 mm 2 m/S 744 mmHg 85%
    20:00 +18°C° 0.4 mm 2 m/S 744 mmHg 92%
    21:00 +17°C° 0 mm 2 m/S 744 mmHg 93%
    22:00 +16°C° 0 mm 2 m/S 744 mmHg 95%
    23:00 +15°C° 0 mm 2 m/S 744 mmHg 97%

    Morgen, 25 Mai, Samstag

    Zeit Temperatur Niederschläge Wind Luftdruck Luftfeuchtigkeit
    00:00 +15°C° 0 mm 2 m/S 744 mmHg 97%
    01:00 +14°C° 0 mm 2 m/S 744 mmHg 97%
    02:00 +14°C° 0 mm 2 m/S 744 mmHg 98%
    03:00 +14°C° 0 mm 2 m/S 744 mmHg 98%
    04:00 +14°C° 0 mm 2 m/S 744 mmHg 98%
    05:00 +14°C° 0 mm 2 m/S 744 mmHg 98%
    06:00 +15°C° 0 mm 2 m/S 744 mmHg 94%
    07:00 +16°C° 0 mm 2 m/S 744 mmHg 90%
    08:00 +17°C° 0 mm 3 m/S 744 mmHg 85%
    09:00 +19°C° 0 mm 3 m/S 744 mmHg 78%
    10:00 +20°C° 0 mm 4 m/S 744 mmHg 71%
    11:00 +22°C° 0 mm 4 m/S 744 mmHg 63%
    12:00 +22°C° 0 mm 4 m/S 744 mmHg 60%
    13:00 +23°C° 0 mm 4 m/S 744 mmHg 56%
    14:00 +23°C° 0 mm 5 m/S 744 mmHg 53%
    15:00 +23°C° 0 mm 4 m/S 743 mmHg 53%
    16:00 +23°C° 0 mm 4 m/S 743 mmHg 53%
    17:00 +22°C° 0 mm 4 m/S 743 mmHg 52%
    18:00 +21°C° 0 mm 3 m/S 743 mmHg 60%
    19:00 +19°C° 0 mm 2 m/S 744 mmHg 67%
    20:00 +18°C° 0 mm 1 m/S 744 mmHg 74%
    21:00 +16°C° 0 mm 2 m/S 744 mmHg 78%
    22:00 +15°C° 0 mm 2 m/S 744 mmHg 81%
    23:00 +15°C° 0 mm 2 m/S 744 mmHg 84%

    übermorgen, 26 Mai, Sonntag

    Zeit Temperatur Niederschläge Wind Luftdruck Luftfeuchtigkeit
    00:00 +14°C° 0 mm 2 m/S 745 mmHg 88%
    01:00 +13°C° 0 mm 2 m/S 745 mmHg 91%
    02:00 +13°C° 0 mm 2 m/S 745 mmHg 94%
    03:00 +12°C° 0 mm 2 m/S 745 mmHg 94%
    04:00 +12°C° 0 mm 2 m/S 745 mmHg 93%
    05:00 +12°C° 0 mm 2 m/S 745 mmHg 93%
    06:00 +13°C° 0 mm 2 m/S 746 mmHg 84%
    07:00 +15°C° 0 mm 2 m/S 746 mmHg 75%
    08:00 +17°C° 0 mm 2 m/S 746 mmHg 66%
    09:00 +18°C° 0 mm 3 m/S 746 mmHg 64%
    10:00 +19°C° 0 mm 3 m/S 746 mmHg 61%
    11:00 +20°C° 0 mm 3 m/S 746 mmHg 59%
    12:00 +20°C° 0 mm 4 m/S 746 mmHg 56%
    13:00 +21°C° 0 mm 4 m/S 745 mmHg 54%
    14:00 +22°C° 0 mm 5 m/S 745 mmHg 52%
    15:00 +22°C° 0 mm 5 m/S 745 mmHg 53%
    16:00 +21°C° 0 mm 5 m/S 745 mmHg 54%
    17:00 +21°C° 0 mm 5 m/S 745 mmHg 56%
    18:00 +20°C° 0.1 mm 4 m/S 745 mmHg 64%
    19:00 +18°C° 0.1 mm 4 m/S 745 mmHg 71%
    20:00 +17°C° 0.1 mm 3 m/S 745 mmHg 79%
    21:00 +16°C° 0 mm 3 m/S 745 mmHg 83%
    22:00 +16°C° 0 mm 3 m/S 745 mmHg 87%
    23:00 +14°C° 0 mm 3 m/S 746 mmHg 91%

    27 Mai, Montag

    Zeit Temperatur Niederschläge Wind Luftdruck Luftfeuchtigkeit
    00:00 +13°C° 0 mm 3 m/S 746 mmHg 93%
    01:00 +13°C° 0 mm 2 m/S 746 mmHg 94%
    02:00 +12°C° 0 mm 2 m/S 746 mmHg 96%
    03:00 +12°C° 0 mm 2 m/S 747 mmHg 95%
    04:00 +12°C° 0 mm 1 m/S 747 mmHg 95%
    05:00 +11°C° 0 mm 1 m/S 747 mmHg 94%
    06:00 +13°C° 0 mm 2 m/S 747 mmHg 85%
    07:00 +15°C° 0 mm 2 m/S 748 mmHg 76%
    08:00 +17°C° 0 mm 3 m/S 748 mmHg 67%
    09:00 +19°C° 0 mm 3 m/S 748 mmHg 62%
    10:00 +20°C° 0 mm 3 m/S 748 mmHg 57%
    11:00 +22°C° 0 mm 4 m/S 748 mmHg 52%
    12:00 +22°C° 0 mm 4 m/S 748 mmHg 51%
    13:00 +23°C° 0 mm 4 m/S 747 mmHg 51%
    14:00 +25°C° 0 mm 3 m/S 747 mmHg 50%
    15:00 +25°C° 0.1 mm 4 m/S 747 mmHg 54%
    16:00 +25°C° 0.1 mm 4 m/S 746 mmHg 57%
    17:00 +25°C° 0.1 mm 4 m/S 746 mmHg 61%
    18:00 +22°C° 0.1 mm 3 m/S 746 mmHg 69%
    19:00 +21°C° 0.1 mm 3 m/S 746 mmHg 78%
    20:00 +19°C° 0.1 mm 2 m/S 746 mmHg 87%
    21:00 +19°C° 0.2 mm 2 m/S 746 mmHg 88%
    22:00 +19°C° 0.2 mm 2 m/S 746 mmHg 90%
    23:00 +18°C° 0.2 mm 2 m/S 746 mmHg 92%

    28 Mai, Dienstag

    Zeit Temperatur Niederschläge Wind Luftdruck Luftfeuchtigkeit
    00:00 +18°C° 0 mm 2 m/S 746 mmHg 92%
    01:00 +19°C° 0 mm 1 m/S 746 mmHg 93%
    02:00 +18°C° 0 mm 1 m/S 746 mmHg 93%
    03:00 +18°C° 0 mm 1 m/S 746 mmHg 93%
    04:00 +18°C° 0 mm 1 m/S 746 mmHg 93%
    05:00 +18°C° 0 mm 2 m/S 746 mmHg 93%
    06:00 +19°C° 0 mm 2 m/S 746 mmHg 90%
    07:00 +20°C° 0 mm 2 m/S 746 mmHg 87%
    08:00 +21°C° 0 mm 2 m/S 746 mmHg 84%
    09:00 +21°C° 0.2 mm 3 m/S 745 mmHg 83%
    10:00 +22°C° 0.2 mm 4 m/S 745 mmHg 81%
    11:00 +23°C° 0.2 mm 4 m/S 745 mmHg 79%
    12:00 +25°C° 0.3 mm 4 m/S 745 mmHg 76%
    13:00 +25°C° 0.3 mm 4 m/S 745 mmHg 72%
    14:00 +26°C° 0.3 mm 3 m/S 744 mmHg 68%
    15:00 +26°C° 1.3 mm 3 m/S 744 mmHg 70%
    16:00 +26°C° 1.3 mm 3 m/S 744 mmHg 71%
    17:00 +26°C° 1.3 mm 3 m/S 744 mmHg 72%
    18:00 +25°C° 0.4 mm 3 m/S 744 mmHg 74%
    19:00 +24°C° 0.4 mm 3 m/S 744 mmHg 77%
    20:00 +21°C° 0.4 mm 3 m/S 744 mmHg 79%
    21:00 +21°C° 0 mm 3 m/S 744 mmHg 81%
    22:00 +20°C° 0 mm 3 m/S 744 mmHg 82%
    23:00 +20°C° 0 mm 4 m/S 744 mmHg 83%

    29 Mai, Mittwoch

    Zeit Temperatur Niederschläge Wind Luftdruck Luftfeuchtigkeit
    00:00 +19°C° 0 mm 4 m/S 744 mmHg 83%
    01:00 +19°C° 0 mm 4 m/S 744 mmHg 83%
    02:00 +18°C° 0 mm 4 m/S 743 mmHg 83%
    03:00 +18°C° 0.3 mm 4 m/S 743 mmHg 85%
    04:00 +17°C° 0.3 mm 3 m/S 743 mmHg 87%
    05:00 +17°C° 0.3 mm 3 m/S 743 mmHg 89%
    06:00 +18°C° 0.1 mm 4 m/S 743 mmHg 87%
    07:00 +19°C° 0.1 mm 4 m/S 744 mmHg 85%
    08:00 +20°C° 0.1 mm 4 m/S 744 mmHg 83%
    09:00 +22°C° 0 mm 4 m/S 744 mmHg 76%
    10:00 +25°C° 0 mm 4 m/S 744 mmHg 69%
    11:00 +27°C° 0 mm 4 m/S 744 mmHg 62%
    12:00 +28°C° 0 mm 4 m/S 744 mmHg 58%
    13:00 +28°C° 0 mm 4 m/S 744 mmHg 54%
    14:00 +29°C° 0 mm 5 m/S 744 mmHg 50%
    15:00 +28°C° 0.1 mm 5 m/S 744 mmHg 53%
    16:00 +28°C° 0.1 mm 4 m/S 744 mmHg 55%
    17:00 +28°C° 0.1 mm 4 m/S 744 mmHg 58%
    18:00 +26°C° 0.1 mm 3 m/S 745 mmHg 66%
    19:00 +24°C° 0.1 mm 2 m/S 745 mmHg 73%
    20:00 +22°C° 0.1 mm 1 m/S 745 mmHg 81%
    21:00 +21°C° 0 mm 1 m/S 745 mmHg 84%
    22:00 +20°C° 0 mm 1 m/S 746 mmHg 87%
    23:00 +19°C° 0 mm 1 m/S 746 mmHg 90%
    Mehr zeigen